| time (UTC) | temp C | wind direction | speed KPH | gust KPH | rain 1hr cm | rain 24hr cm | rain mn cm | humidity % | barometer mb |
| 20260506094707 | 11 | 37 | 4.8 | 16.1 | 0.10 | 1.50 | 0.13 | 92 | 1009.8 |
| 20260506094321 | 11 | 38 | 8.0 | 17.7 | 0.10 | 1.50 | 0.13 | 92 | 1009.8 |
| 20260506093706 | 11 | 31 | 9.7 | 17.7 | 0.10 | 1.50 | 0.13 | 92 | 1009.7 |
| 20260506092654 | 11 | 32 | 3.2 | 12.9 | 0.10 | 1.50 | 0.13 | 93 | 1009.6 |
| 20260506091659 | 11 | 59 | 4.8 | 16.1 | 0.10 | 1.50 | 0.13 | 93 | 1009.5 |
| 20260506091313 | 11 | 17 | 6.4 | 11.3 | 0.00 | 1.40 | 0.10 | 93 | 1009.5 |
| 20260506090659 | 11 | 44 | 4.8 | 11.3 | 0.00 | 1.40 | 0.10 | 93 | 1009.5 |
| 20260506085701 | 11 | 31 | 1.6 | 14.5 | 0.00 | 3.71 | 0.10 | 93 | 1009.4 |
| 20260506084705 | 11 | 61 | 3.2 | 16.1 | 0.00 | 3.71 | 0.10 | 93 | 1009.2 |
| 20260506084258 | 11 | 64 | 6.4 | 16.1 | 0.00 | 3.71 | 0.10 | 93 | 1009.2 |
| 20260506083703 | 11 | 29 | 4.8 | 12.9 | 0.00 | 3.71 | 0.10 | 93 | 1009.2 |
| 20260506082710 | 11 | 30 | 4.8 | 19.3 | 0.00 | 3.71 | 0.10 | 93 | 1009.0 |
| 20260506081711 | 11 | 21 | 4.8 | 14.5 | 0.00 | 3.71 | 0.10 | 93 | 1008.8 |
| 20260506081305 | 11 | 12 | 8.0 | 11.3 | 0.00 | 3.71 | 0.10 | 93 | 1008.9 |
| 20260506080711 | 11 | 46 | 4.8 | 11.3 | 0.00 | 3.71 | 0.10 | 93 | 1008.8 |
| 20260506072730 | 11 | 42 | 8.0 | 17.7 | 0.00 | 5.59 | 0.10 | 93 | 1008.5 |
| 20260506071715 | 11 | 73 | 8.0 | 16.1 | 0.00 | 5.59 | 0.10 | 93 | 1008.4 |
| 20260506071327 | 11 | 31 | 8.0 | 16.1 | 0.00 | 5.59 | 0.10 | 93 | 1008.4 |
| 20260506070713 | 11 | 59 | 6.4 | 9.7 | 0.00 | 5.59 | 0.10 | 93 | 1008.3 |
| 20260506061704 | 11 | 32 | 1.6 | 8.0 | 0.00 | 8.20 | 0.10 | 94 | 1008.0 |
| 20260506061257 | 11 | 29 | 1.6 | 8.0 | 0.00 | 8.20 | 0.10 | 94 | 1007.9 |
| 20260506060705 | 11 | 11 | 3.2 | 8.0 | 0.00 | 8.20 | 0.10 | 94 | 1007.9 |
| 20260506051301 | 11 | 2 | 0.0 | 0.0 | 0.00 | 10.79 | 0.10 | 93 | 1007.6 |
| 20260506050709 | 11 | 2 | 0.0 | 0.0 | 0.00 | 10.79 | 0.10 | 93 | 1007.6 |
| 20260506044704 | 11 | 2 | 0.0 | 0.0 | 0.00 | 14.81 | 0.10 | 93 | 1007.4 |
| 20260506044258 | 11 | 2 | 0.0 | 0.0 | 0.00 | 14.81 | 0.10 | 93 | 1007.4 |
| 20260506043708 | 11 | 2 | 0.0 | 0.0 | 0.00 | 14.81 | 0.10 | 93 | 1007.3 |
| 20260506042655 | 11 | 357 | 0.0 | 0.0 | 0.00 | 14.81 | 0.10 | 93 | 1007.3 |
| 20260506041701 | 11 | 357 | 0.0 | 0.0 | 0.00 | 14.81 | 0.10 | 93 | 1007.2 |
| 20260506041316 | 11 | 357 | 0.0 | 0.0 | 0.00 | 14.81 | 0.10 | 93 | 1007.2 |
| 20260506040724 | 11 | 357 | 0.0 | 0.0 | 0.00 | 14.81 | 0.10 | 93 | 1007.1 |
| 20260506035710 | 11 | 357 | 0.0 | 0.0 | 0.00 | 14.91 | 0.10 | 93 | 1007.0 |
| 20260506034658 | 11 | 357 | 0.0 | 0.0 | 0.10 | 14.91 | 0.10 | 93 | 1007.1 |
| 20260506034312 | 11 | 357 | 0.0 | 0.0 | 0.10 | 14.91 | 0.10 | 93 | 1007.1 |
| 20260506033700 | 11 | 357 | 0.0 | 0.0 | 0.10 | 14.91 | 0.10 | 93 | 1007.2 |
| 20260506032707 | 11 | 357 | 0.0 | 0.0 | 0.10 | 14.91 | 0.10 | 93 | 1007.3 |
| 20260506031713 | 11 | 357 | 0.0 | 0.0 | 0.10 | 14.91 | 0.10 | 93 | 1007.4 |
| 20260506031306 | 11 | 357 | 0.0 | 0.0 | 0.10 | 14.91 | 0.10 | 93 | 1007.4 |
| 20260506030713 | 11 | 357 | 0.0 | 0.0 | 0.10 | 14.91 | 0.10 | 93 | 1007.4 |
| 20260506025701 | 11 | 357 | 0.0 | 0.0 | 0.00 | 15.39 | 0.08 | 93 | 1007.5 |
| 20260506024656 | 11 | 357 | 0.0 | 0.0 | 0.00 | 15.39 | 0.08 | 93 | 1007.6 |
| 20260506024303 | 11 | 357 | 0.0 | 0.0 | 0.10 | 15.39 | 0.08 | 93 | 1007.5 |
| 20260506023655 | 11 | 357 | 0.0 | 0.0 | 0.10 | 15.39 | 0.08 | 93 | 1007.5 |
| 20260506022720 | 11 | 357 | 0.0 | 0.0 | 0.10 | 15.39 | 0.08 | 93 | 1007.5 |
| 20260506021704 | 11 | 357 | 0.0 | 0.0 | 0.10 | 15.39 | 0.08 | 93 | 1007.6 |
| 20260506021259 | 11 | 357 | 0.0 | 0.0 | 0.20 | 15.39 | 0.08 | 93 | 1007.6 |
| 20260506020708 | 11 | 357 | 0.0 | 0.0 | 0.20 | 15.39 | 0.08 | 93 | 1007.6 |
| 20260506015701 | 11 | 277 | 0.0 | 0.0 | 0.30 | 15.39 | 0.08 | 93 | 1007.6 |
| 20260506014708 | 11 | 277 | 0.0 | 0.0 | 0.30 | 15.39 | 0.08 | 93 | 1007.7 |
| 20260506014259 | 11 | 277 | 0.0 | 0.0 | 0.20 | 15.29 | 0.05 | 93 | 1007.6 |
| 20260506013712 | 11 | 277 | 0.0 | 0.0 | 0.20 | 15.29 | 0.05 | 93 | 1007.6 |
| 20260506012723 | 11 | 277 | 0.0 | 0.0 | 0.20 | 15.29 | 0.05 | 92 | 1007.7 |
| 20260506011707 | 11 | 277 | 0.0 | 0.0 | 0.20 | 15.29 | 0.05 | 93 | 1007.6 |
| 20260506011315 | 11 | 277 | 0.0 | 0.0 | 0.10 | 15.19 | 0.05 | 93 | 1007.7 |
| 20260506010707 | 11 | 277 | 0.0 | 0.0 | 0.10 | 15.19 | 0.05 | 93 | 1007.8 |
| 20260506005711 | 11 | 277 | 0.0 | 0.0 | 0.00 | 15.09 | 0.03 | 92 | 1007.9 |
| 20260506004657 | 11 | 277 | 0.0 | 0.0 | 0.00 | 15.09 | 0.03 | 92 | 1008.0 |
| 20260506004306 | 11 | 277 | 0.0 | 0.0 | 0.00 | 15.09 | 0.03 | 92 | 1008.0 |
| 20260506003657 | 11 | 277 | 0.0 | 0.0 | 0.10 | 15.09 | 0.03 | 92 | 1008.0 |
| 20260506002706 | 11 | 277 | 0.0 | 0.0 | 0.10 | 15.09 | 0.03 | 92 | 1008.0 |
| 20260506001712 | 11 | 277 | 0.0 | 0.0 | 0.10 | 15.09 | 0.03 | 92 | 1008.0 |
| 20260506001301 | 11 | 277 | 0.0 | 0.0 | 0.10 | 15.09 | 0.03 | 92 | 1008.1 |
| 20260506000734 | 11 | 277 | 0.0 | 0.0 | 0.10 | 15.09 | 0.03 | 92 | 1008.1 |
| 20260505235702 | 11 | 277 | 0.0 | 0.0 | 0.10 | 15.09 | 0.03 | 92 | 1008.2 |
| 20260505234711 | 11 | 277 | 0.0 | 0.0 | 0.10 | 15.09 | 0.03 | 92 | 1008.2 |
| 20260505234301 | 11 | 277 | 0.0 | 0.0 | 0.00 | 15.01 | 0.00 | 92 | 1008.1 |
| 20260505233710 | 11 | 277 | 0.0 | 0.0 | 0.00 | 15.01 | 0.00 | 92 | 1008.1 |
| 20260505232700 | 11 | 277 | 0.0 | 0.0 | 0.00 | 15.01 | 0.00 | 92 | 1008.2 |
| 20260505231725 | 11 | 277 | 0.0 | 0.0 | 0.00 | 15.01 | 0.00 | 92 | 1008.2 |
| 20260505231314 | 11 | 277 | 0.0 | 0.0 | 0.00 | 15.01 | 0.00 | 92 | 1008.3 |
| 20260505230724 | 11 | 277 | 0.0 | 0.0 | 0.00 | 15.01 | 0.00 | 92 | 1008.3 |
| 20260505225729 | 11 | 273 | 0.0 | 0.0 | 0.00 | 15.01 | 0.00 | 92 | 1008.3 |
| 20260505224658 | 11 | 273 | 0.0 | 0.0 | 0.00 | 15.01 | 0.00 | 91 | 1008.4 |
| 20260505224308 | 11 | 273 | 0.0 | 0.0 | 0.00 | 15.01 | 0.00 | 91 | 1008.4 |
| 20260505223657 | 11 | 273 | 0.0 | 0.0 | 0.00 | 15.01 | 0.00 | 91 | 1008.5 |
| 20260505222705 | 11 | 273 | 0.0 | 0.0 | 0.00 | 15.01 | 0.00 | 91 | 1008.5 |
| 20260505221726 | 11 | 273 | 0.0 | 0.0 | 0.00 | 15.01 | 0.00 | 91 | 1008.4 |
| 20260505221319 | 11 | 273 | 0.0 | 0.0 | 0.00 | 15.01 | 0.00 | 91 | 1008.5 |
| 20260505220727 | 11 | 273 | 0.0 | 0.0 | 0.00 | 15.01 | 0.00 | 91 | 1008.5 |
| 20260505215705 | 12 | 273 | 0.0 | 0.0 | 0.00 | 15.01 | 3.00 | 91 | 1008.5 |
| 20260505214715 | 12 | 273 | 0.0 | 0.0 | 0.00 | 15.01 | 3.00 | 91 | 1008.6 |
| 20260505214331 | 12 | 273 | 0.0 | 0.0 | 0.00 | 15.01 | 3.00 | 91 | 1008.6 |
| 20260505213658 | 12 | 273 | 0.0 | 0.0 | 0.00 | 15.01 | 3.00 | 91 | 1008.6 |
| 20260505212729 | 12 | 273 | 0.0 | 0.0 | 0.00 | 15.01 | 3.00 | 91 | 1008.6 |
| 20260505211656 | 12 | 273 | 0.0 | 0.0 | 0.00 | 15.01 | 3.00 | 91 | 1008.5 |
| 20260505211309 | 12 | 273 | 0.0 | 0.0 | 0.00 | 15.01 | 3.00 | 91 | 1008.5 |
| 20260505210658 | 12 | 273 | 0.0 | 0.0 | 0.00 | 15.01 | 3.00 | 91 | 1008.6 |
| 20260505205708 | 12 | 273 | 0.0 | 0.0 | 0.00 | 15.01 | 3.00 | 90 | 1008.6 |
| 20260505204717 | 12 | 273 | 0.0 | 0.0 | 0.00 | 15.01 | 3.00 | 90 | 1008.5 |
| 20260505204330 | 12 | 273 | 0.0 | 0.0 | 0.00 | 15.01 | 3.00 | 90 | 1008.4 |
| 20260505203657 | 12 | 273 | 0.0 | 0.0 | 0.00 | 15.01 | 3.00 | 90 | 1008.4 |
| 20260505202728 | 12 | 273 | 0.0 | 0.0 | 0.00 | 15.01 | 3.00 | 89 | 1008.4 |
| 20260505201712 | 12 | 273 | 0.0 | 0.0 | 0.00 | 15.01 | 3.00 | 89 | 1008.2 |
| 20260505201306 | 12 | 273 | 0.0 | 0.0 | 0.00 | 15.01 | 3.00 | 89 | 1008.2 |
| 20260505200714 | 12 | 273 | 0.0 | 0.0 | 0.00 | 15.01 | 3.00 | 90 | 1008.1 |
| 20260505195704 | 12 | 273 | 0.0 | 0.0 | 0.00 | 15.19 | 3.00 | 89 | 1008.1 |
| 20260505194715 | 12 | 273 | 0.0 | 0.0 | 0.00 | 15.19 | 3.00 | 89 | 1008.0 |
| 20260505194308 | 12 | 273 | 0.0 | 0.0 | 0.00 | 15.19 | 3.00 | 89 | 1008.2 |
| 20260505193657 | 12 | 273 | 0.0 | 0.0 | 0.00 | 15.19 | 3.00 | 89 | 1008.2 |
| 20260505192707 | 12 | 273 | 0.0 | 0.0 | 0.00 | 15.19 | 3.00 | 89 | 1008.3 |
| 20260505191656 | 12 | 2 | 0.0 | 0.0 | 0.00 | 15.19 | 3.00 | 88 | 1008.4 |
| 20260505191310 | 12 | 2 | 0.0 | 0.0 | 0.00 | 15.19 | 3.00 | 88 | 1008.4 |
| 20260505190659 | 12 | 2 | 0.0 | 0.0 | 0.00 | 15.19 | 3.00 | 88 | 1008.3 |
| 20260505185709 | 12 | 2 | 0.0 | 0.0 | 0.00 | 15.70 | 3.00 | 88 | 1008.2 |
| 20260505184719 | 12 | 2 | 0.0 | 0.0 | 0.00 | 15.70 | 3.00 | 88 | 1008.1 |
| 20260505184312 | 12 | 2 | 0.0 | 0.0 | 0.00 | 15.70 | 3.00 | 88 | 1008.1 |
| 20260505183701 | 12 | 2 | 0.0 | 0.0 | 0.00 | 15.70 | 3.00 | 88 | 1008.1 |
| 20260505182730 | 13 | 2 | 0.0 | 3.2 | 0.00 | 15.70 | 3.00 | 88 | 1008.1 |
| 20260505181735 | 13 | 2 | 0.0 | 3.2 | 0.00 | 15.70 | 3.00 | 88 | 1007.9 |
| 20260505181309 | 13 | 2 | 0.0 | 6.4 | 0.00 | 15.70 | 3.00 | 87 | 1007.9 |
| 20260505180658 | 13 | 346 | 0.0 | 1.6 | 0.00 | 15.70 | 3.00 | 87 | 1007.9 |
| 20260505175706 | 13 | 346 | 0.0 | 3.2 | 0.00 | 17.91 | 3.00 | 87 | 1007.8 |
| 20260505174656 | 13 | 313 | 0.0 | 6.4 | 0.00 | 17.91 | 3.00 | 87 | 1007.8 |
| 20260505174310 | 13 | 2 | 0.0 | 9.7 | 0.00 | 17.91 | 3.00 | 86 | 1007.7 |
| 20260505173659 | 13 | 340 | 1.6 | 9.7 | 0.00 | 17.91 | 3.00 | 87 | 1007.7 |
| 20260505172709 | 13 | 296 | 0.0 | 8.0 | 0.00 | 17.91 | 3.00 | 87 | 1007.9 |
| 20260505171700 | 14 | 344 | 0.0 | 8.0 | 0.00 | 17.91 | 3.00 | 87 | 1007.6 |
| 20260505171310 | 14 | 7 | 0.0 | 12.9 | 0.00 | 17.91 | 3.00 | 87 | 1007.6 |
| 20260505170721 | 14 | 7 | 3.2 | 14.5 | 0.00 | 17.91 | 3.00 | 87 | 1007.5 |
| 20260505165708 | 14 | 335 | 1.6 | 4.8 | 0.00 | 18.21 | 3.00 | 87 | 1007.4 |
| 20260505164701 | 14 | 334 | 3.2 | 8.0 | 0.00 | 18.21 | 3.00 | 87 | 1007.4 |
| 20260505164337 | 14 | 334 | 0.0 | 6.4 | 0.00 | 18.21 | 3.00 | 87 | 1007.4 |
| 20260505163705 | 14 | 289 | 1.6 | 8.0 | 0.00 | 18.21 | 3.00 | 86 | 1007.5 |
| 20260505162658 | 14 | 303 | 1.6 | 11.3 | 0.00 | 18.21 | 3.00 | 86 | 1007.5 |
| 20260505161700 | 15 | 290 | 0.0 | 8.0 | 0.00 | 18.21 | 3.00 | 87 | 1007.5 |
| 20260505161312 | 14 | 288 | 1.6 | 6.4 | 0.00 | 18.21 | 3.00 | 88 | 1007.5 |
| 20260505160705 | 14 | 292 | 0.0 | 0.0 | 0.00 | 18.21 | 3.00 | 88 | 1007.5 |
| 20260505152715 | 14 | 296 | 1.6 | 6.4 | 0.00 | 18.21 | 3.00 | 86 | 1007.3 |
| 20260505151731 | 14 | 342 | 0.0 | 3.2 | 0.00 | 18.21 | 3.00 | 87 | 1007.6 |
| 20260505151300 | 15 | 326 | 0.0 | 6.4 | 0.00 | 18.21 | 3.00 | 86 | 1007.6 |
| 20260505150710 | 15 | 300 | 1.6 | 8.0 | 0.00 | 18.21 | 3.00 | 86 | 1007.7 |
| 20260505124725 | 15 | 211 | 4.8 | 14.5 | 0.00 | 21.79 | 2.97 | 89 | 1007.6 |
| 20260505124312 | 15 | 219 | 4.8 | 16.1 | 0.00 | 21.79 | 2.97 | 90 | 1007.6 |
| 20260505123703 | 15 | 288 | 8.0 | 16.1 | 0.00 | 21.79 | 2.97 | 91 | 1007.7 |
| 20260505122708 | 15 | 272 | 4.8 | 14.5 | 0.00 | 21.79 | 2.97 | 91 | 1007.6 |
| 20260505121711 | 15 | 278 | 3.2 | 16.1 | 0.00 | 21.79 | 2.97 | 91 | 1007.6 |
| 20260505121300 | 15 | 287 | 1.6 | 16.1 | 0.00 | 21.79 | 2.97 | 92 | 1007.6 |
| 20260505120712 | 15 | 292 | 3.2 | 12.9 | 0.00 | 21.79 | 2.97 | 91 | 1007.7 |
| 20260505115701 | 15 | 294 | 3.2 | 14.5 | 0.00 | 22.40 | 2.97 | 92 | 1007.7 |
| 20260505114711 | 15 | 285 | 1.6 | 16.1 | 0.00 | 22.40 | 2.97 | 92 | 1007.7 |
| 20260505114301 | 15 | 265 | 3.2 | 16.1 | 0.00 | 22.40 | 2.97 | 93 | 1007.7 |
| 20260505113713 | 15 | 288 | 0.0 | 1.6 | 0.00 | 22.40 | 2.97 | 94 | 1007.7 |
| 20260505112717 | 14 | 229 | 0.0 | 9.7 | 0.00 | 22.40 | 2.97 | 94 | 1007.6 |
| 20260505111700 | 13 | 327 | 0.0 | 1.6 | 0.00 | 22.40 | 2.97 | 94 | 1007.7 |
| 20260505111309 | 14 | 340 | 0.0 | 4.8 | 0.00 | 22.40 | 2.97 | 94 | 1007.7 |
| 20260505110729 | 13 | 328 | 1.6 | 4.8 | 0.00 | 22.40 | 2.97 | 94 | 1007.7 |
| 20260505101657 | 13 | 357 | 0.0 | 9.7 | 0.20 | 22.40 | 2.97 | 94 | 1007.8 |
| 20260505101312 | 13 | 348 | 1.6 | 9.7 | 0.30 | 22.40 | 2.97 | 95 | 1007.9 |
| 20260505100658 | 13 | 348 | 0.0 | 8.0 | 0.51 | 22.40 | 2.97 | 95 | 1007.8 |
| 20260505095659 | 12 | 300 | 0.0 | 3.2 | 0.79 | 22.40 | 2.97 | 95 | 1007.8 |